Location: Windsor
(43.2292°N, 89.3015°W)
Time: 19:48:36
(UTC+00:00)

NOAA 15 - Pass Details

Date: 05 July 2022
Orbit: 796 x 812 km, 98.6° (Epoch: 09 August)

Event Time Altitude Azimuth Distance (km) Brightness Sun altitude
Rises 02:29:47 0° 221° (SW) 3,320 7.8 -8.0°
Reaches altitude 10° 02:34:09 10° 256° (WSW) 2,398 7.6 -8.6°
Maximum altitude 02:35:38 11° 273° (W) 2,324 7.8 -8.8°
Drops below altitude 10° 02:37:07 10° 289° (WNW) 2,404 8.3 -9.0°
Sets 02:41:33 0° 324° (NW) 3,344 9.9 -9.5°
